Regional Weather Roundup
Issued by NWS San Angelo, TX

Home | Current Version | Previous Version | Text Only | Print | Product List | Glossary On
Versions: 1 2 3 4 5 6 7 8 9 10 11 12 13 14 15 16 17 18 19 20 21 22 23 24 25 26 27 28 29 30 31 32 33 34 35 36 37 38 39 40 41 42 43 44 45 46 47 48 49 50
000
ASUS44 KSJT 231410
RWRSJT
WEST CENTRAL TEXAS REGIONAL WEATHER ROUNDUP
NATIONAL WEATHER SERVICE SAN ANGELO TX
900 AM CDT SAT MAY 23 2015

NOTE: "FAIR" INDICATES FEW OR NO CLOUDS BELOW 12,000 FEET WITH NO
SIGNIFICANT WEATHER AND/OR OBSTRUCTIONS TO VISIBILITY.

TXZ049-054-064>066-071>073-076>078-098-099-113-114-127-128-139-140-
154-155-168>170-231500
...LOCATIONS ACROSS WEST CENTRAL TEXAS...

CITY           SKY/WX    TMP DP  RH WIND       PRES   REMARKS
SAN ANGELO     CLOUDY    72  64  76 SE8       30.01S
ABILENE        CLOUDY    74  68  81 S15       30.03R
DYESS AFB      CLOUDY    74  64  71 SE10      30.00S
JUNCTION       LGT RAIN  72  68  87 S10G22    30.07R
SWEETWATER     CLOUDY    73  69  87 S20       30.04R
BROWNWOOD      CLOUDY    73  68  83 S14       30.06R
COLEMAN        CLOUDY    73  70  88 S12G17    30.05R
SONORA         CLOUDY    72  70  94 S14G20    30.10S
OZONA          CLOUDY    70  68  94 S15G23    30.07F
BRADY          CLOUDY    72  72 100 SE15      30.05R
$$

TEXAS PANHANDLE/OKLAHOMA PANHANDLE

CITY           SKY/WX    TMP DP  RH WIND       PRES   REMARKS
AMARILLO       TSTM      53  53 100 E16       30.03R FOG
BORGER         LGT RAIN  56  53  90 NE10G16   30.01F
CANADIAN       TSTM      58  58  98 N12       30.05R
DALHART        CLOUDY    56  53  90 NE5       30.01R
DUMAS          CLOUDY    54  52  94 E9        30.01F
GUYMON         NOT AVBL
HEREFORD       CLOUDY    55  55  99 MISG      30.02F
PAMPA          CLOUDY    55  53  94 N15       30.04F
PERRYTON       CLOUDY    56  55  95 N14       30.09F
$$

SOUTHERN PANHANDLE/SOUTH PLAINS/ROLLING PLAINS

CITY           SKY/WX    TMP DP  RH WIND       PRES   REMARKS
LUBBOCK        CLOUDY    68  66  93 S20G29    29.99S FOG
SNYDER         CLOUDY    71  68  89 SE15G21   30.00S
CHILDRESS      FOG       66  66 100 SE17      30.01R VSB 1/4
SEMINOLE       PTSUNNY   68  66  92 S16G23    30.00R
$$

PERMIAN BASIN

CITY           SKY/WX    TMP DP  RH WIND       PRES   REMARKS
MIDLAND        PTSUNNY   72  65  78 S22G30    29.98S
ODESSA         MOSUNNY   69  63  81 S21G29    30.00R
WINK           CLOUDY    70  60  70 SE12      29.95R
$$

FAR WEST/SOUTHWEST MOUNTAINS/TRANS PECOS

CITY           SKY/WX    TMP DP  RH WIND       PRES   REMARKS
ALPINE         PTSUNNY   69  46  42 S24G36    30.12R
DRYDEN           N/A     74  69  85 S10G22    30.01R
EL PASO        MOSUNNY   68  26  20 W9        30.01R
FORT STOCKTON  CLOUDY    74  54  49 S18G28    29.98R
GUADALUPE PASS SUNNY     58  47  66 SW10      30.08R
MARFA          CLOUDY   N/A N/A N/A S23G30    30.11S
PECOS          CLOUDY    64  63  94 CALM      29.95R FOG
$$

DALLAS/FORT WORTH METROPLEX

CITY           SKY/WX    TMP DP  RH WIND       PRES   REMARKS
DFW AIRPORT    CLOUDY    69  69 100 SE13      30.10S FOG
FTW MEACHAM    CLOUDY    72  70  93 SE15G21   30.09R FOG
DAL-EXECUTIVE  LGT RAIN  70  68  93 SE10      30.11S FOG
GRAND PRAIRIE  CLOUDY    72  72 100 SE7       30.12S FOG
ADDISON        CLOUDY    70  68  94 SE12      30.12S FOG
MESQUITE       LGT RAIN  70  70 100 SE12      30.13R
LANCASTER      CLOUDY    69  67  92 SE10      30.13R FOG
$$

NORTH CENTRAL TEXAS

CITY           SKY/WX    TMP DP  RH WIND       PRES   REMARKS
SHRMAN/DENISON CLOUDY    69  68  98 SE10G17   30.14R FOG
GAINESVILLE    CLOUDY    67  66  97 SE12      30.14R FOG
BRIDGEPORT     CLOUDY    70  70 100 SE8       30.11R FOG
DENTON         CLOUDY    70  68  93 SE14      30.11R FOG
WAXAHACHIE     DRIZZLE   70  70 100 SE9       30.12F
GRANBURY         N/A     73  70  89 SE13G21   30.09R FOG
$$

WESTERN NORTH TEXAS

CITY           SKY/WX    TMP DP  RH WIND       PRES   REMARKS
WICHITA FALLS  CLOUDY    69  68  96 SE13      30.05F FOG
VERNON         CLOUDY    69  65  88 SE15G22   30.02F
BRECKENRIDGE   CLOUDY    75  70  84 SE14G20   30.04R
COMANCHE       CLOUDY    73  72  99 SE17      30.04F
$$

CENTRAL AND SOUTH CENTRAL TEXAS

CITY           SKY/WX    TMP DP  RH WIND       PRES   REMARKS
AUSTIN/BERGSTM CLOUDY    75  74  96 S9        30.10R
WACO           CLOUDY    74  71  91 SE14      30.10S FOG
HILLSBORO      CLOUDY    72  70  92 SE12      30.11F FOG
TEMPLE         CLOUDY    72  68  88 SE15      30.10R
KILLEEN-GRAY   LGT RAIN  72  71  98 SE14      30.09S
FORT HOOD      CLOUDY    72  72 100 SE9       30.09S
GEORGETOWN     CLOUDY    73  72  94 SE7       30.10R
LAGO VISTA     CLOUDY    73  72  95 S6        30.12R
SAN MARCOS     PTSUNNY   75  72  88 S14       30.11R FOG
NEW BRAUNFELS  CLOUDY    77  74  90 S13       30.09R FOG
RANDOLPH AFB   NOT AVBL
SAN ANTONIO    CLOUDY    77  73  87 S13       30.10S
STINSON        CLOUDY    77  74  90 SE7       30.08R
PLEASANTON     NOT AVBL
LA GRANGE      CLOUDY    78  76  91 SE5       30.10R
GIDDINGS       CLOUDY    76  72  87 SE8       30.15S
$$

EAST TEXAS

CITY           SKY/WX    TMP DP  RH WIND       PRES   REMARKS
PARIS          CLOUDY    66  59  77 SE13      30.18S
CLARKSVILLE    NOT AVBL
TYLER          CLOUDY    72  67  84 SE12      30.18R
LONGVIEW       CLOUDY    71  65  81 SE8       30.19R
PALESTINE      CLOUDY    72  70  92 SE9       30.18R
NACOGDOCHES    PTSUNNY   72  66  83 SE6       30.18S
$$

TEXAS HILL COUNTRY AND EDWARDS PLATEAU

CITY           SKY/WX    TMP DP  RH WIND       PRES   REMARKS
LLANO          CLOUDY    73  73 100 SE7       30.12R FOG
HORSESHOE BAY  DRIZZLE   73  72  94 SE6       30.10R
KERRVILLE      CLOUDY    73  70  92 S14G21    30.12R
FREDERICKSBRG  CLOUDY    72  69  90 S12       30.11S
ROCKSPRINGS    CLOUDY    70  70 100 SE21G26   30.12S FOG
HONDO          CLOUDY    76  72  87 SE15      30.10R
UVALDE         CLOUDY    74  72  92 SE12      30.07S
DEL RIO        CLOUDY    76  72  87 SE16G22   30.02S
$$

SOUTHEAST TEXAS

CITY           SKY/WX    TMP DP  RH WIND       PRES   REMARKS
COLLEGE STN    LGT RAIN  76  73  91 SE12      30.13R
CALDWELL       CLOUDY    73  73 100 MISG      30.16R FOG
CROCKETT       NOT AVBL
BRENHAM        CLOUDY    78  76  91 SE6       30.14R
HUNTSVILLE     CLOUDY    74  71  91 SE3       30.16R
CONROE         CLOUDY    75  71  87 SE7       30.15R
HOUSTON BUSH   PTSUNNY   78  74  87 SE7       30.14R
HOUSTON HOBBY  PTSUNNY   81  75  82 SE8       30.13R
PERLAND        PTSUNNY   82  74  76 SE12      30.15R
WHARTON        MOSUNNY   80  75  86 SE10      30.12R
$$

THE UPPER TEXAS COAST

CITY           SKY/WX    TMP DP  RH WIND       PRES   REMARKS
ORANGE         MOSUNNY   79  73  81 E10       30.18R
PORT ARTHUR    PTSUNNY   79  74  84 E9        30.15R
GALVESTON      PTSUNNY   81  76  84 SE12      30.15R
ANGLETON       MOSUNNY   78  75  90 SE14      30.12R
BAY CITY       MOSUNNY   82  78  87 SE9       30.11S
$$

TEXAS COASTAL BEND, RIO GRANDE PLAINS DEEP SOUTH TEXAS

CITY           SKY/WX    TMP DP  RH WIND       PRES   REMARKS
VICTORIA       CLOUDY    79  76  90 SE12      30.10R
BEEVILLE       FAIR      77  77 100 SE7       30.08R
ROCKPORT       PTSUNNY   83  75  77 SE13      30.07R
PORT ARANSAS   PTSUNNY   82  76  82 SE14      30.07S
PORT LAVACA    PTSUNNY   80  75  84 SE13      30.10S
CORPUS CHRISTI PTSUNNY   81  75  82 SE15      30.06R
KINGSVILLE NAS CLOUDY    82  78  88 SE14      30.07R
COTULLA        CLOUDY    78  73  84 SE12      30.06S
LAREDO         PTSUNNY   78  73  84 SE16      30.06S
BROWNSVILLE    CLOUDY    83  75  77 SE18G25   30.05R
PORT ISABEL    MOSUNNY   83  75  77 SE20      30.04S
HEBBRONVILLE     N/A     78  73  86 SE10      30.08R
MCALLEN        PTSUNNY   83  76  79 SE14      30.04R
WESLACO        PTSUNNY   82  75  79 SE13G22   30.04R
FALFURRIAS     PTSUNNY   80  75  87 SE9G17    30.05R
EDINBURG       MOSUNNY   82  75  78 SE15      30.05R
$$


USA.gov is the U.S. government's official web portal to all federal, state and local government web resources and services.